[[{"header":{"parameterUnit":"m.s-1","parameterCategory":1,"la1":30.2991,"la2":30.254,"lo1":-89.0895,"lo2":-89.0444,"dy":0.0017,"dx":0.0017,"nx":28,"ny":28,"refTime":"2024-08-09T03:00:00:Z","depth":0,"parameterNumber":2,"parameterNumberName":"U-component_of_WINDS"},"data":[0,0,0,0,0,0,0,0,0,0,0,0,0,0,0,0,0,0,0,0,0,0,0,0,0,0,0,0,0,0,0,0,0,0,0,0,0,0,0,0,0,0,0,0,0,0,0,0,0,0,0,0,0,0,0,0,0,0,-0.2869,-0.2869,0,-0.283,-0.2829,-0.2829,-0.2826,-0.2827,-0.2827,-0.2828,-0.2785,-0.2784,-0.2782,0,0,0,0,0,0,0,0,0,0,0,0,0,-0.2942,-0.2941,-0.287,-0.2869,-0.2869,-0.283,-0.2829,-0.2829,-0.2826,-0.2827,-0.2827,-0.2828,-0.2786,-0.2784,-0.2782,0,0,0,0,0,0,0,0,0,0,0,0,0,-0.2907,-0.294,-0.287,-0.2863,-0.2862,-0.283,-0.2829,-0.2828,-0.2826,-0.2827,-0.2828,-0.2828,-0.2786,-0.2784,-0.2782,-0.2753,0,0,-0.2775,-0.2774,0,0,0,0,0,0,0,0,-0.2909,-0.2904,-0.2864,-0.2863,-0.2862,-0.2834,-0.2839,-0.2803,-0.2826,-0.284,-0.2828,-0.2829,-0.2801,-0.2797,-0.2788,-0.2751,-0.2749,-0.2774,-0.2773,-0.2772,-0.2771,0,0,0,0,0,0,0,-0.2911,-0.2906,-0.2854,-0.2864,-0.2862,-0.2861,-0.2857,-0.2832,-0.2817,-0.2839,-0.2838,-0.2834,-0.28,-0.279,-0.2787,-0.2749,-0.2774,-0.2772,-0.2771,-0.277,-0.2687,-0.2686,0,0,0,0,0,0,-0.2915,-0.2908,-0.2855,-0.2852,-0.2888,-0.2859,-0.2855,-0.2842,-0.2817,-0.2814,-0.2833,-0.2834,-0.2794,-0.279,-0.2786,-0.2751,-0.2772,-0.277,-0.2768,-0.2687,-0.2686,-0.2685,0,0,0,0,0,0,-0.2917,-0.2911,-0.2857,-0.288,-0.2873,-0.2857,-0.2843,-0.2841,-0.2831,-0.2813,-0.281,-0.2826,-0.2794,-0.2789,-0.2761,-0.2749,-0.2769,-0.2767,-0.2688,-0.2687,-0.2686,-0.2681,0,0,0,0,0,0,-0.2919,-0.2911,-0.2901,-0.288,-0.2872,-0.2834,-0.2843,-0.284,-0.2827,-0.2828,-0.2806,-0.2803,-0.2795,-0.2765,-0.2759,-0.2746,-0.2765,-0.2689,-0.2688,-0.2686,-0.2682,-0.268,-0.2678,0,0,0,0,0,-0.2922,-0.2901,-0.29,-0.2894,-0.2859,-0.2833,-0.2828,-0.282,-0.2826,-0.2815,-0.2804,-0.2803,-0.2751,-0.2762,-0.2756,-0.2742,-0.269,-0.2688,-0.2686,-0.2683,-0.268,-0.2678,0,0,0,0,0,0,-0.292,-0.2898,-0.2897,-0.2869,-0.2853,-0.2833,-0.2819,-0.2817,-0.2799,-0.28,-0.279,-0.2785,-0.2758,-0.2747,-0.2759,-0.2713,-0.2721,-0.2718,-0.2721,-0.2718,-0.2716,-0.2719,-0.2763,0,0,0,0,0,-0.2916,-0.2898,-0.2879,-0.2856,-0.2848,-0.2835,-0.2823,-0.2818,-0.2801,-0.2794,-0.278,-0.2763,-0.2743,-0.273,-0.271,-0.268,-0.2675,-0.2668,-0.2665,-0.2664,-0.2661,-0.2644,-0.2641,-0.268,-0.268,-0.268,0,0,-0.2908,-0.2894,-0.2883,-0.2855,-0.2842,-0.2823,-0.2829,-0.2808,-0.2794,-0.2791,-0.2764,-0.2753,-0.2733,-0.2705,-0.2691,-0.2695,-0.2649,-0.2661,-0.266,-0.2658,-0.2642,-0.2638,-0.2635,-0.2678,-0.2678,-0.2679,0,0,-0.2884,-0.2872,-0.2851,-0.2838,-0.2818,-0.281,-0.2805,-0.2785,-0.2778,-0.2751,-0.2748,-0.273,-0.2696,-0.2682,-0.267,-0.264,-0.2639,-0.2634,-0.2623,-0.2606,-0.2603,-0.2601,-0.259,-0.2587,-0.2632,-0.2632,-0.2632,0,-0.2877,-0.2848,-0.284,-0.282,-0.2808,-0.2805,-0.2783,-0.2771,-0.2745,-0.2737,-0.2741,-0.2698,-0.2684,-0.2652,-0.2645,-0.2636,-0.2629,-0.2637,-0.2605,-0.2602,-0.2599,-0.2589,-0.2585,-0.2631,-0.2631,-0.2631,-0.2631,0,-0.284,-0.282,-0.2806,-0.2782,-0.2768,-0.2748,-0.2736,-0.2723,-0.2719,-0.2709,-0.2682,-0.2665,-0.2642,-0.2634,-0.263,-0.2601,-0.2604,-0.2607,-0.2615,-0.2595,-0.2585,-0.2581,-0.263,-0.2631,-0.2631,-0.2631,0,0,-0.2814,-0.2787,-0.2782,-0.2771,-0.2749,-0.2733,-0.2712,-0.269,-0.2679,-0.2661,-0.2643,-0.2614,-0.2616,-0.2603,-0.2597,-0.2582,-0.256,-0.2586,-0.2586,-0.2582,-0.2527,-0.2526,-0.2522,-0.2559,-0.2558,-0.2558,-0.2529,0,-0.2788,-0.2751,-0.2743,-0.2711,-0.2692,-0.2689,-0.267,-0.2654,-0.2645,-0.2627,-0.2616,-0.2596,-0.26,-0.2592,-0.2578,-0.2566,-0.2549,-0.2568,-0.2542,-0.2541,-0.2547,-0.2517,-0.2515,-0.2489,-0.2525,-0.2525,-0.2524,0,-0.2753,-0.2735,-0.2701,-0.2682,-0.2674,-0.2657,-0.2636,-0.262,-0.2601,-0.2595,-0.2581,-0.2576,-0.2553,-0.2562,-0.2531,-0.2544,-0.2532,-0.2525,-0.2523,-0.2521,-0.2532,-0.2514,-0.2481,-0.2477,-0.2518,-0.2519,-0.2519,0,-0.2738,-0.2705,-0.2681,-0.2672,-0.2648,-0.2637,-0.2626,-0.2609,-0.2596,-0.2578,-0.2569,-0.2548,-0.2537,-0.252,-0.251,-0.2517,-0.2479,-0.2487,-0.2473,-0.2473,-0.2465,-0.2466,-0.2431,-0.2458,-0.2458,-0.2458,-0.2458,0,-0.2709,-0.2689,-0.2674,-0.2659,-0.2635,-0.2626,-0.2603,-0.2592,-0.2577,-0.2559,-0.2555,-0.2538,-0.2525,-0.2507,-0.2499,-0.2474,-0.2468,-0.2463,-0.2461,-0.2463,-0.2464,-0.2456,-0.2458,-0.2457,-0.2457,-0.2457,-0.2457,0,-0.2689,-0.2678,-0.2651,-0.2631,-0.2626,-0.2609,-0.2592,-0.2577,-0.2567,-0.2545,-0.2539,-0.2524,-0.2502,-0.249,-0.2462,-0.2457,-0.2429,-0.2427,-0.2435,-0.2434,-0.2421,-0.2423,-0.2379,-0.2373,-0.2404,-0.2404,-0.2404,0,-0.2672,-0.2656,-0.2634,-0.2623,-0.2612,-0.2593,-0.258,-0.257,-0.2557,-0.2535,-0.2523,-0.25,-0.2482,-0.2447,-0.2433,-0.2412,-0.241,-0.2397,-0.2407,-0.241,-0.241,-0.2412,-0.241,-0.2395,-0.2395,-0.2394,-0.2394,0,-0.2643,-0.2638,-0.262,-0.26,-0.2585,-0.2569,-0.2553,-0.2543,-0.253,-0.2515,-0.2493,-0.2479,-0.2451,-0.2429,-0.2407,-0.2395,-0.2392,-0.2391,-0.2387,-0.2389,-0.2395,-0.2392,-0.243,-0.2392,-0.2392,-0.2393,-0.2393,-0.2393,-0.2624,-0.2609,-0.2592,-0.2572,-0.2559,-0.2544,-0.2529,-0.2517,-0.2499,-0.2476,-0.2471,-0.2447,-0.2429,-0.2399,-0.2387,-0.2368,-0.237,-0.2364,-0.2362,-0.2361,-0.2361,-0.2397,-0.2364,-0.2364,-0.2364,-0.2364,-0.2364,0,-0.2595,-0.2583,-0.2565,-0.2543,-0.2527,-0.2526,-0.2508,-0.2495,-0.2475,-0.2458,-0.244,-0.2415,-0.2393,-0.2377,-0.2355,-0.2343,-0.2342,-0.2338,-0.2339,-0.2336,-0.236,-0.2366,-0.234,-0.234,-0.234,-0.234,-0.234,-0.234,-0.2578,-0.2554,-0.2547,-0.2516,-0.2505,-0.2483,-0.2472,-0.2458,-0.2445,-0.2417,-0.2399,-0.2389,-0.2373,-0.235,-0.233,-0.2326,-0.2318,-0.2314,-0.231,-0.2332,-0.2335,-0.2337,-0.2343,-0.2313,-0.2313,-0.2288,-0.2288,-0.2288]},{"header":{"parameterUnit":"m.s-1","parameterCategory":1,"la1":30.2991,"la2":30.254,"lo1":-89.0895,"lo2":-89.0444,"dy":0.0017,"dx":0.0017,"nx":28,"ny":28,"refTime":"2024-08-09T03:00:00:Z","depth":0,"parameterNumber":3,"parameterNumberName":"V-component_of_WINDS"},"data":[0,0,0,0,0,0,0,0,0,0,0,0,0,0,0,0,0,0,0,0,0,0,0,0,0,0,0,0,0,0,0,0,0,0,0,0,0,0,0,0,0,0,0,0,0,0,0,0,0,0,0,0,0,0,0,0,0,0,-2.7902,-2.7903,0,-2.792,-2.792,-2.792,-2.7907,-2.7906,-2.7906,-2.7905,-2.7921,-2.7922,-2.7923,0,0,0,0,0,0,0,0,0,0,0,0,0,-2.7856,-2.7857,-2.7902,-2.7903,-2.7903,-2.792,-2.792,-2.792,-2.7907,-2.7906,-2.7905,-2.7905,-2.792,-2.7922,-2.7923,0,0,0,0,0,0,0,0,0,0,0,0,0,-2.7875,-2.7857,-2.7902,-2.7898,-2.7898,-2.792,-2.792,-2.792,-2.7907,-2.7906,-2.7905,-2.7904,-2.792,-2.7922,-2.7923,-2.7949,0,0,-2.7927,-2.7928,0,0,0,0,0,0,0,0,-2.7874,-2.7877,-2.7899,-2.7899,-2.7898,-2.791,-2.791,-2.793,-2.7907,-2.7903,-2.7905,-2.7904,-2.7918,-2.7919,-2.7925,-2.795,-2.7951,-2.7927,-2.7928,-2.7929,-2.7929,0,0,0,0,0,0,0,-2.7873,-2.7876,-2.7909,-2.7899,-2.7899,-2.7895,-2.7897,-2.7913,-2.7915,-2.7904,-2.7903,-2.7905,-2.7918,-2.7923,-2.7925,-2.7951,-2.7927,-2.7929,-2.793,-2.793,-2.8,-2.8001,0,0,0,0,0,0,-2.7872,-2.7875,-2.7909,-2.791,-2.7884,-2.7897,-2.7899,-2.7907,-2.7915,-2.7915,-2.7906,-2.7904,-2.7921,-2.7923,-2.7925,-2.7958,-2.7929,-2.793,-2.7931,-2.7999,-2.8,-2.8001,0,0,0,0,0,0,-2.7871,-2.7875,-2.7908,-2.7892,-2.7896,-2.7898,-2.7908,-2.7908,-2.7914,-2.7917,-2.7917,-2.7911,-2.7921,-2.7923,-2.7944,-2.7958,-2.7931,-2.7932,-2.7998,-2.7999,-2.8001,-2.8022,0,0,0,0,0,0,-2.787,-2.7875,-2.7885,-2.7893,-2.7897,-2.7927,-2.7909,-2.7909,-2.7916,-2.7915,-2.7922,-2.7922,-2.792,-2.7942,-2.7945,-2.796,-2.7933,-2.7997,-2.7999,-2.8,-2.802,-2.8024,-2.8028,0,0,0,0,0,-2.7868,-2.789,-2.7886,-2.789,-2.791,-2.7927,-2.793,-2.7928,-2.7918,-2.7928,-2.793,-2.7922,-2.7956,-2.7944,-2.7948,-2.7963,-2.7996,-2.7998,-2.8,-2.8019,-2.8023,-2.8028,0,0,0,0,0,0,-2.7882,-2.789,-2.7886,-2.7911,-2.7919,-2.7925,-2.7938,-2.7933,-2.7943,-2.7941,-2.7937,-2.7939,-2.7961,-2.7964,-2.795,-2.7989,-2.7974,-2.7977,-2.7987,-2.7991,-2.7995,-2.7994,-2.7935,0,0,0,0,0,-2.7889,-2.7903,-2.7909,-2.793,-2.7934,-2.7936,-2.7943,-2.7941,-2.7949,-2.7952,-2.7955,-2.7963,-2.7975,-2.7983,-2.7995,-2.802,-2.8022,-2.8033,-2.8036,-2.8039,-2.8042,-2.8057,-2.8062,-2.8009,-2.8009,-2.8009,0,0,-2.7901,-2.7907,-2.7916,-2.7933,-2.7939,-2.7954,-2.7938,-2.7954,-2.7965,-2.7954,-2.7974,-2.7977,-2.7985,-2.8009,-2.8019,-2.8012,-2.8058,-2.8042,-2.8045,-2.8046,-2.806,-2.8065,-2.807,-2.801,-2.801,-2.801,0,0,-2.7932,-2.7938,-2.7957,-2.7963,-2.7973,-2.7974,-2.7979,-2.7986,-2.7988,-2.8009,-2.8001,-2.8014,-2.8035,-2.8041,-2.8047,-2.8082,-2.8076,-2.8086,-2.8106,-2.812,-2.8125,-2.8128,-2.8142,-2.8147,-2.8089,-2.8089,-2.8089,0,-2.7946,-2.7969,-2.7967,-2.7984,-2.7992,-2.7984,-2.8003,-2.8009,-2.8022,-2.8027,-2.8019,-2.8046,-2.8051,-2.8077,-2.8086,-2.809,-2.8096,-2.8085,-2.8124,-2.8128,-2.8132,-2.8144,-2.8149,-2.809,-2.809,-2.809,-2.809,0,-2.7987,-2.8002,-2.8016,-2.8031,-2.804,-2.8058,-2.8058,-2.8068,-2.8065,-2.8067,-2.8088,-2.8094,-2.8107,-2.8113,-2.811,-2.8139,-2.8134,-2.8125,-2.811,-2.8138,-2.815,-2.8155,-2.8092,-2.8091,-2.8091,-2.8091,0,0,-2.8026,-2.804,-2.8046,-2.8053,-2.8063,-2.8075,-2.8093,-2.8107,-2.8116,-2.8125,-2.814,-2.8159,-2.8151,-2.8158,-2.8156,-2.8169,-2.8197,-2.8158,-2.8158,-2.8166,-2.8231,-2.8239,-2.8244,-2.8193,-2.8194,-2.8194,-2.8231,0,-2.8059,-2.8091,-2.8091,-2.812,-2.8136,-2.8128,-2.8144,-2.8152,-2.8155,-2.8167,-2.817,-2.8184,-2.8172,-2.8176,-2.8189,-2.8191,-2.8211,-2.8189,-2.8207,-2.8208,-2.8207,-2.825,-2.8258,-2.8292,-2.8235,-2.8236,-2.8237,0,-2.8101,-2.8113,-2.8145,-2.8155,-2.8161,-2.8176,-2.8189,-2.8201,-2.8211,-2.8211,-2.822,-2.8216,-2.8234,-2.8218,-2.8244,-2.8229,-2.8236,-2.8239,-2.824,-2.8242,-2.8225,-2.8255,-2.8303,-2.8308,-2.8244,-2.8243,-2.8243,0,-2.8128,-2.8152,-2.8175,-2.8181,-2.8193,-2.8203,-2.8209,-2.8217,-2.8226,-2.8238,-2.8244,-2.8256,-2.8264,-2.8274,-2.8273,-2.8262,-2.83,-2.8283,-2.8301,-2.8301,-2.831,-2.8309,-2.8361,-2.8313,-2.8313,-2.8313,-2.8313,0,-2.8165,-2.8185,-2.8188,-2.8202,-2.8225,-2.8224,-2.8246,-2.825,-2.8258,-2.8272,-2.8266,-2.828,-2.8278,-2.8292,-2.8291,-2.8313,-2.8316,-2.8317,-2.8317,-2.8319,-2.8319,-2.8324,-2.8322,-2.8314,-2.8314,-2.8314,-2.8314,0,-2.82,-2.8203,-2.8227,-2.8237,-2.824,-2.8256,-2.8264,-2.8278,-2.828,-2.8299,-2.8303,-2.8306,-2.8322,-2.8323,-2.834,-2.834,-2.8367,-2.8364,-2.8365,-2.8364,-2.8383,-2.8381,-2.844,-2.8448,-2.8394,-2.8395,-2.8395,0,-2.8224,-2.8239,-2.8251,-2.8261,-2.8268,-2.8283,-2.8293,-2.8293,-2.8303,-2.8316,-2.8328,-2.8343,-2.8356,-2.8382,-2.8385,-2.8399,-2.8397,-2.8416,-2.8399,-2.84,-2.8399,-2.8398,-2.84,-2.842,-2.8421,-2.8421,-2.8421,0,-2.8266,-2.8267,-2.8282,-2.8297,-2.8309,-2.8321,-2.8332,-2.834,-2.8341,-2.8353,-2.837,-2.838,-2.8399,-2.8415,-2.8429,-2.8434,-2.8428,-2.8427,-2.8432,-2.8434,-2.8435,-2.8436,-2.8375,-2.8426,-2.8425,-2.8425,-2.8425,-2.8425,-2.8297,-2.8311,-2.8322,-2.8339,-2.8348,-2.8359,-2.8372,-2.8377,-2.8391,-2.8408,-2.8406,-2.8426,-2.8435,-2.8453,-2.846,-2.8474,-2.8468,-2.8475,-2.8477,-2.8479,-2.8481,-2.8432,-2.8477,-2.8476,-2.8476,-2.8476,-2.8476,0,-2.834,-2.8347,-2.8363,-2.8379,-2.8393,-2.8387,-2.8399,-2.8411,-2.8428,-2.8438,-2.8451,-2.8471,-2.8487,-2.8492,-2.8508,-2.8519,-2.8516,-2.8523,-2.8522,-2.8524,-2.8486,-2.848,-2.8524,-2.8524,-2.8524,-2.8524,-2.8524,-2.8524,-2.8364,-2.8388,-2.8391,-2.8419,-2.8426,-2.8446,-2.8454,-2.8464,-2.8472,-2.8495,-2.8509,-2.8513,-2.8521,-2.8537,-2.8551,-2.8552,-2.8559,-2.8566,-2.8566,-2.8531,-2.8526,-2.8522,-2.8517,-2.8567,-2.8567,-2.8603,-2.8603,-2.8604]}]]